Zurück zum Katalog

PELICAN-2 3009

AktivKommunikationSSO
NORAD 62631·PAYLOAD·🇺🇸 United States

Gestartet Jan 14, 2025 von Vandenberg Space Force Base

Loading…

Nächste Überflüge (nächste 24 Stunden)

TLE

AktuellSource: CelesTrak SupGP

Epoche: Sep 15, 2026, 02:44 UTC

1 62631C 25009Y   26258.11445602  .00010939  00000+0  26898-3 0  2585
2 62631  97.2033 347.7718 0000943  50.4329 224.4010 15.40673410    15

Verfolge PELICAN-2 3009 in Echtzeit mit AllMySat

Download on the App Store